Weather in Tsvelodubovo

Russia / Saint-Petersburg and Leningrad Oblast     60°23′15″N   29°33′34″E
temp.,
°C
wind,
m/s
gust,
m/s
humid.,
%
clouds,
%
prec.,
mm/h
press.,
hPa
HPBL,
m
24 january, mon
mon2400:00−3ssw41296100 0.1 1025457
03:00−2ssw51296100 0.1 1025468
06:00−1ssw51397100 0.0 1023479
09:00−1ssw61396100 0.0 1022622
12:000sw61495100 0.0 1021811
15:00+1sw71493100 0.1 1018988
18:00+1sw71494100 0.0 10171007
21:00+1sw71496100 0.1 1015905
25 january, tue
tue2500:00+1sw61398100 0.1 1013867
03:00+1wsw51198100 0.1 1012579
06:000wsw3998100 0.0 1011431
09:00−3w3109668 0.0 1012254
12:00−1nw499399 0.3 1013785
15:00−3nw410865 0.3 1016593
18:00−7nw310925 0.0 1018214
21:00−10nw259640 0.0 102080
26 january, wed
wed2600:00−14w119966 0.0 102111
03:00−15wsw119973 0.0 102113
06:00−15sw119962 0.0 102012
09:00−14ssw249859 0.0 101953
12:00−6ssw3992100 0.0 1017238
15:00−4ssw3992100 0.0 1015370
18:00−6s31090100 0.0 1013323
21:00−6s41189100 0.0 1010368
27 january, thu
thu2700:00−7sse4119083 0.0 1008355
03:00−7sse41192100 0.0 1006372
06:00−7sse4109292 0.1 1003409
09:00−7sse499399 0.3 1001380
12:00−6sse489585 0.4 1000345
15:00−5sse3895100 0.6 998310
18:00−3sse3696100 0.4 997230
21:00−3se2796100 0.4 996252
28 january, fri
fri2800:00−3ese2797100 0.1 996217
03:00−3e2696100 0.1 996203
06:00−4ene2697100 0.4 996223
09:00−5ne2696100 0.6 998211
12:00−4nne3897100 0.0 999343
15:00−3n4893100 0.1 1001659
18:00−7n399598 0.1 1004377
21:00−9nnw4109599 0.1 1006364